Airfield :
LOGIN :

Register | Disclaimer

   EN    FR    IT 

 










Legend :    VFR   Marginal VFR   IFR   Intensive IFR   Very Intensive IFR
Visi :
Ceiling :
>= 8 km
>= 3000ft
5 to 8 km
1000 to 3000 ft
1500m to 5 km
500 to 1000 ft
800 to 1500m
200 to 500 ft
< 800m
< 200 ft
Symbols :   Thunderstorms  Fog  Heavy snow  Heavy precipitations  Wind > 20 kt
SIGMETs :     Misc.  Thunderstorms  Icing  Turbulence  Mountain Waves  Volcanic Ashes







- Airport Elevation : 270 ft
- IATA code : OXF
- Download approach charts


EGTK - Oxford (Kidlington)

CURRENT METAR :
  • 262020Z 25007KT CAVOK 08/03 Q1014

EXPIRED METARs :
  • 261950Z 24010KT 9999 FEW036 09/02 Q1014
  • 261920Z 25011KT 9999 FEW039 10/02 Q1014
  • 261850Z 24008KT 9999 FEW048 10/03 Q1014
  • 261820Z 25011KT 9999 FEW046 11/03 Q1014
  • 261750Z 25012KT 9999 FEW047 12/02 Q1014

TAF TAF EGTK
Valid from the 26 at 18:00 until the 26 at 22:00 UTC


261706Z 2618/2622 24014KT 9999 SCT040
BECMG 2620/2622 VRB04KT
No reported NOTAMs for that airfield.



MET'MAP, your aeronautical weather chart ! - Copyright ORBIFLY December 2007 - Disclaimer

ORBIFLY MET'MAP TEAM :

Programming & Development : Alexandra Zaïnal
Concept & Development : Baudouin d'Aumeries
Co-Development & Prog : Marc-Olivier Méhu
Technical & hardware support : Manuel Goepfert

Contact : metmap@orbifly.com




SOURCES & CREDITS :

   NOAA